Weather History for Toluca Jose Maria, Mexico

Change the Weather History Date:

Wednesday, March 27, 2013

  Actual Average Record
Temperature  
Mean Temperature 56 °F -  
Max Temperature 73 °F 71 °F 77 °F (1998)
Min Temperature 39 °F 38 °F 28 °F (2009)
Degree Days  
Heating Degree Days 9    
Growing Degree Days 6 (Base 50)    
Moisture  
Dew Point 33 °F    
Average Humidity 51    
Maximum Humidity 87    
Minimum Humidity 14    
Precipitation  
Precipitation 0.00 in - - ()
Sea Level Pressure  
Sea Level Pressure 30.24 in    
Wind  
Wind Speed 3 mph ()    
Max Wind Speed 17 mph    
Max Gust Speed -    
Visibility 7.1 miles    
Events      
Averages and records for this station are not official NWS values.
T = Trace of Precipitation, MM = Missing Value Source: Averaged Metar Reports

Daily Weather History Graph

Daily Weather History Graph

Search for Another Location

Airport:

Trip Planner

Search our weather history database for the weather conditions in past years. The results will help you decide how hot, cold, wet, or windy it might be!

Date:

Astronomy

Mar. 27, 2013 Rise Set
Actual Time 6:36 AM CST 6:51 PM CST
Civil Twilight 6:14 AM CST 7:13 PM CST
Nautical Twilight 5:48 AM CST 7:38 PM CST
Astronomical Twilight 5:22 AM CST 8:04 PM CST
Moon 7:24 PM CST (3/27) 6:35 AM CST (3/27)
Length of Visible Light 12h 58m
Length of Day
12h 15m
Full, 100% of the Moon is Illuminated
Mar 27
Full
Apr 2
Last Quarter
Apr 10
New
Apr 18
First Quarter
Apr 25
Full

Hourly Weather History & Observations

Time (CST) Temp. Dew Point Humidity Pressure Visibility Wind Dir Wind Speed Gust Speed Precip Events Conditions
12:45 AM 46.4 °F 37.4 °F 71% 30.42 in 5.0 mi Calm Calm - N/A   Scattered Clouds
1:45 AM 44.6 °F 37.4 °F 76% 30.42 in 4.0 mi Calm Calm - N/A   Scattered Clouds
2:45 AM 42.8 °F 35.6 °F 76% 29.88 in 3.0 mi Calm Calm - N/A   Mostly Cloudy
3:45 AM 41.0 °F 35.6 °F 81% 30.38 in 3.0 mi Calm Calm - N/A   Mostly Cloudy
4:45 AM 41.0 °F 35.6 °F 81% - 2.0 mi Calm Calm - N/A   Mostly Cloudy
5:45 AM 41.0 °F 35.6 °F 81% 29.94 in 3.0 mi Calm Calm - N/A   Mostly Cloudy
6:45 AM 39.2 °F 35.6 °F 87% 30.42 in 5.0 mi Calm Calm - N/A   Scattered Clouds
7:56 AM 46.4 °F 37.4 °F 71% 30.46 in 5.0 mi Calm Calm - N/A   Scattered Clouds
8:56 AM 53.6 °F 39.2 °F 58% 29.99 in 5.0 mi Calm Calm - N/A   Mostly Cloudy
9:47 AM 59.0 °F 39.2 °F 48% 30.49 in 5.0 mi Calm Calm - N/A   Mostly Cloudy
10:46 AM 62.6 °F 35.6 °F 37% 30.44 in 8.0 mi East 6.9 mph - N/A   Mostly Cloudy
11:49 AM 66.2 °F 28.4 °F 24% 29.91 in 10.0 mi North 10.4 mph - N/A   Mostly Cloudy
12:44 PM 69.8 °F 17.6 °F 14% 30.42 in 10.0 mi NNW 4.6 mph - N/A   Mostly Cloudy
1:46 PM 73.4 °F 23.0 °F 15% 30.39 in 10.0 mi West 9.2 mph - N/A   Mostly Cloudy
2:41 PM 71.6 °F 19.4 °F 14% 29.84 in 10.0 mi WSW 11.5 mph - N/A   Mostly Cloudy
3:44 PM 69.8 °F 23.0 °F 17% 30.33 in 10.0 mi ESE 2.3 mph - N/A   Mostly Cloudy
4:46 PM 66.2 °F 30.2 °F 26% 30.35 in 8.0 mi SW 17.3 mph - N/A   Mostly Cloudy
5:42 PM 64.4 °F 30.2 °F 28% 29.92 in 8.0 mi South 12.7 mph - N/A   Mostly Cloudy
6:44 PM 59.0 °F 35.6 °F 42% 30.38 in 7.0 mi SSE 10.4 mph - N/A   Mostly Cloudy
7:45 PM 55.4 °F 37.4 °F 51% 30.39 in 10.0 mi South 6.9 mph - N/A   Mostly Cloudy
8:43 PM 55.4 °F 39.2 °F 54% 29.94 in 10.0 mi SSW 4.6 mph - N/A   Scattered Clouds
9:45 PM 53.6 °F 37.4 °F 54% 30.44 in 10.0 mi NNE 3.5 mph - N/A   Scattered Clouds
10:45 PM 50.0 °F 35.6 °F 58% 30.46 in 10.0 mi Calm Calm - N/A   Scattered Clouds
11:45 PM 50.0 °F 33.8 °F 54% 29.92 in 10.0 mi Calm Calm - N/A   Partly Cloudy